Regional Weather Roundup
Issued by NWS

Home | Current Version | Previous Version | Graphics & Text | Print | Product List | Glossary On
Versions: 1 2 3 4 5 6 7 8 9 10 11 12 13 14 15 16 17 18 19 20 21 22 23 24 25 26 27 28 29 30 31 32 33 34 35 36 37 38 39 40 41 42 43 44 45 46 47 48 49 50
000
ASUS43 KLOT 041100
RWRIL

ILLINOIS REGIONAL WEATHER ROUNDUP
NATIONAL WEATHER SERVICE CHICAGO/ROMEOVILLE IL
600 AM CDT SAT JUL 04 2015

NOTE: "FAIR" INDICATES FEW OR NO CLOUDS BELOW 12,000 FEET WITH NO
SIGNIFICANT WEATHER AND/OR OBSTRUCTIONS TO VISIBILITY.

* THESE STATIONS ARE NOT UNDER NWS QUALITY CONTROL. THEY ALSO MAY NOT
  REPORT WEATHER SUCH AS PRECIPITATION OR FOG.

ILZ001-002-007-009-015-016-024-041200-
NORTHWEST ILLINOIS

CITY           SKY/WX    TMP DP  RH WIND       PRES   REMARKS
MOLINE         CLEAR     56  53  90 CALM      29.98R FOG
STERLING*        N/A     55  55 100 CALM      29.99R VSB<1/4
$$

ILZ003-004-008-010-011-017-018-041200-
NORTH CENTRAL ILLINOIS

CITY           SKY/WX    TMP DP  RH WIND       PRES   REMARKS
ROCKFORD       CLEAR     58  55  90 CALM      29.99R FOG
$$

ILZ005-006-012>014-019>023-041200-
NORTHEAST ILLINOIS

CITY           SKY/WX    TMP DP  RH WIND       PRES   REMARKS
CHICAGO-OHARE  PTCLDY    60  55  83 W6        29.97R
CHICAGO-MIDWAY MOCLDY    63  57  81 CALM      29.96S
AURORA         CLEAR     57  53  86 CALM      29.98R FOG
LANSING*       CLEAR     55  53  92 CALM      29.98R FOG
WAUKEGAN       CLEAR     57  54  89 CALM      29.97R FOG
DUPAGE AIRPORT CLEAR     56  53  90 N3        29.97R
WHEELING       CLEAR     59  54  83 CALM      29.98R
NORTHERLY ISL    N/A     66  52  60 W9          N/A
$$

LMZ740>746-041200-
SOUTHERN LAKE MICHIGAN

STATION/POSITION SKY/WX   TEMP    WIND        PRES    VSBY  WAVE
                          AIR SEA DIR/SP/G                  HT/PER
                          (F)     (DEG/KT/KT) (MB)    (MI)  (FT/S)
HARRISON CRIB              65     270/  5/  6   N/A
BURNHAM HARBOR             66     260/  8/  8   N/A
CALUMET HARBOR             62     220/  2/  4   N/A
BURNS HARBOR               60     190/  4/  5 1015.2R
MICHIGAN CITY              59     160/  3/  3   N/A
MICHIGAN CITY 6N           62 63  210/  4/  4   N/A           0
ST. JOSEPH                 60 62                N/A           0
$$

ILZ025>027-034>036-040-047-049-050-058-095>099-041200-
WEST-CENTRAL ILLINOIS

CITY           SKY/WX    TMP DP  RH WIND       PRES   REMARKS
QUINCY         CLEAR     62  59  90 NE3       29.97R FOG
MACOMB*        CLEAR     55  55 100 CALM      29.99S FOG
$$

ILZ028>032-037-038-041>044-048-051>054-059>061-041200-
CENTRAL ILLINOIS

CITY           SKY/WX    TMP DP  RH WIND       PRES   REMARKS
DECATUR        CLEAR     58  55  90 CALM      29.98R
PEORIA         CLEAR     61  57  87 CALM      29.98R FOG
SPRINGFIELD    CLEAR     62  59  90 CALM      29.98R FOG
TAYLORVILLE    NOT AVBL
$$

ILZ033-039-045-046-055>057-062-063-041200-
EAST-CENTRAL ILLINOIS

CITY           SKY/WX    TMP DP  RH WIND       PRES   REMARKS
CHAMPAIGN      CLEAR     59  57  93 CALM      29.98R FOG
MATTOON        CLEAR     60  59  96 CALM      29.97R FOG
$$

ILZ079-100>102-041200-
SOUTHWEST ILLINOIS

CITY           SKY/WX    TMP DP  RH WIND       PRES   REMARKS
BELLEVILLE     FAIR      64  64 100 CALM      29.96R
CAHOKIA*       FOG       65  63  93 CALM      29.96R VSB 1/4
SPARTA*        CLEAR     65  65  97 CALM      29.97R FOG
$$

ILZ064>066-069>071-074>076-080>082-084>086-088>090-092>094-041200-
SOUTH-CENTRAL ILLINOIS

CITY           SKY/WX    TMP DP  RH WIND       PRES   REMARKS
CARBONDALE     CLOUDY    68  67  96 CALM      29.97R FOG
MT. VERNON       N/A     63  57  82 CALM      29.97R VSB 1/2
SALEM*         CLEAR     67  63  88 CALM      29.96R FOG
$$

ILZ067-068-072-073-078-083-087-091-041200-
SOUTHEAST ILLINOIS

CITY           SKY/WX    TMP DP  RH WIND       PRES   REMARKS
LAWRENCEVILLE  CLEAR     64  63  96 NE5       29.95R FOG
HARRISBURG*      N/A     65  65 100 CALM      29.96R FOG
$$

ABBREVIATIONS USED IN REMARKS
   TC - TEMPERATURE IN CELSIUS
  WCI - WIND CHILL INDEX
   HX - HEAT INDEX
  VSB - VISIBILITY
$$




USA.gov is the U.S. government's official web portal to all federal, state and local government web resources and services.